DLH5520 EDDM-EDDG

Flight info

Callsign DLH5520
Flight time 0h 53m
Altitude 32000
Route INPUD2S INPUD Y102 TESDU DCT AMETU T852 EKSAK/N0381F260 T852 KULIX/N0373F240 T842 ADEMI/N0365F230 M170 HMM HMM1A
Aircraft A320/M-SDE3FGHIRWY/LB1

Departure

Time 2026-05-04 22:14
Airport Munich Airport (EDDM)

Arrival

Time 2026-05-04 23:08
Airport Münster Osnabrück Airport (EDDG)
Time Latitude Longitude Altitude Speed Heading
2026-05-04 21:48 48.35029 11.80377 1464 ft 0 kts 173°
2026-05-04 22:09 48.35026 11.80375 1459 ft 2 kts 197°
2026-05-04 22:09 48.35050 11.80323 1461 ft 14 kts 308°
2026-05-04 22:10 48.35095 11.80155 1464 ft 19 kts 266°
2026-05-04 22:10 48.35078 11.79958 1465 ft 19 kts 260°
2026-05-04 22:10 48.35058 11.79755 1460 ft 20 kts 265°
2026-05-04 22:10 48.34994 11.79649 1464 ft 15 kts 165°
2026-05-04 22:11 48.34904 11.79688 1465 ft 12 kts 171°
2026-05-04 22:11 48.34826 11.79726 1462 ft 14 kts 134°
2026-05-04 22:11 48.34821 11.79910 1467 ft 23 kts 87°
2026-05-04 22:11 48.34843 11.80195 1459 ft 32 kts 81°
2026-05-04 22:12 48.34831 11.80510 1460 ft 19 kts 138°
2026-05-04 22:12 48.34760 11.80540 1462 ft 11 kts 164°
2026-05-04 22:12 48.34647 11.80569 1465 ft 22 kts 189°
2026-05-04 22:12 48.34502 11.80407 1465 ft 29 kts 231°
2026-05-04 22:13 48.34448 11.80110 1460 ft 29 kts 264°
2026-05-04 22:13 48.34444 11.80058 1468 ft 0 kts 264°
2026-05-04 22:13 48.34427 11.79829 1471 ft 57 kts 263°
2026-05-04 22:13 48.34349 11.78804 1460 ft 136 kts 263°
2026-05-04 22:14 48.34214 11.77100 1649 ft 180 kts 264°
2026-05-04 22:14 48.34067 11.75186 2451 ft 190 kts 264°
2026-05-04 22:14 48.33953 11.73211 3196 ft 188 kts 266°
2026-05-04 22:14 48.33880 11.71221 3802 ft 195 kts 267°
2026-05-04 22:15 48.33785 11.69122 4264 ft 211 kts 262°
2026-05-04 22:15 48.33798 11.66809 4662 ft 233 kts 288°
2026-05-04 22:15 48.34758 11.64825 5234 ft 250 kts 324°
2026-05-04 22:15 48.36431 11.63787 5700 ft 271 kts 346°
2026-05-04 22:16 48.38320 11.63359 6490 ft 277 kts 353°
2026-05-04 22:16 48.40257 11.63124 7287 ft 282 kts 354°
2026-05-04 22:16 48.42228 11.62891 8067 ft 287 kts 353°
2026-05-04 22:16 48.44229 11.62590 8846 ft 292 kts 352°
2026-05-04 22:17 48.46267 11.62214 9630 ft 297 kts 351°
2026-05-04 22:17 48.48332 11.61779 10365 ft 302 kts 350°
2026-05-04 22:17 48.50397 11.61312 11056 ft 307 kts 348°
2026-05-04 22:17 48.52522 11.60819 11758 ft 312 kts 348°
2026-05-04 22:18 48.54677 11.60314 12476 ft 316 kts 348°
2026-05-04 22:18 48.56854 11.59742 13195 ft 319 kts 343°
2026-05-04 22:18 48.58992 11.58661 13558 ft 334 kts 336°
2026-05-04 22:18 48.61240 11.57358 13745 ft 355 kts 336°
2026-05-04 22:19 48.63569 11.55991 14220 ft 363 kts 336°
2026-05-04 22:19 48.65938 11.54600 14820 ft 367 kts 336°
2026-05-04 22:19 48.68326 11.53205 15457 ft 369 kts 336°
2026-05-04 22:19 48.70737 11.51805 16097 ft 372 kts 336°
2026-05-04 22:20 48.73165 11.50403 16740 ft 375 kts 336°
2026-05-04 22:20 48.75611 11.48990 17381 ft 377 kts 336°
2026-05-04 22:20 48.78068 11.47567 18000 ft 380 kts 336°
2026-05-04 22:20 48.80550 11.46127 18555 ft 383 kts 336°
2026-05-04 22:21 48.83046 11.44677 19078 ft 386 kts 336°
2026-05-04 22:21 48.85568 11.43212 19621 ft 388 kts 336°
2026-05-04 22:21 48.88093 11.41742 20166 ft 391 kts 336°
2026-05-04 22:21 48.90640 11.40257 20675 ft 393 kts 336°
2026-05-04 22:22 48.93205 11.38757 21166 ft 396 kts 336°
2026-05-04 22:22 48.95787 11.37243 21647 ft 399 kts 336°
2026-05-04 22:22 48.98391 11.35716 22124 ft 403 kts 336°
2026-05-04 22:22 49.01010 11.34180 22576 ft 406 kts 336°
2026-05-04 22:23 49.03661 11.32621 23053 ft 409 kts 336°
2026-05-04 22:23 49.06325 11.31058 23506 ft 412 kts 336°
2026-05-04 22:23 49.09012 11.29481 23895 ft 415 kts 336°
2026-05-04 22:23 49.11713 11.27894 24289 ft 417 kts 336°
2026-05-04 22:24 49.14426 11.26298 24680 ft 419 kts 336°
2026-05-04 22:24 49.19896 11.23064 25436 ft 424 kts 336°
2026-05-04 22:24 49.22654 11.21434 25804 ft 427 kts 336°
2026-05-04 22:25 49.25442 11.19828 26156 ft 429 kts 337°
2026-05-04 22:25 49.28255 11.18241 26519 ft 431 kts 337°
2026-05-04 22:25 49.31076 11.16664 26882 ft 434 kts 337°
2026-05-04 22:25 49.33920 11.15075 27199 ft 437 kts 337°
2026-05-04 22:26 49.36785 11.13468 27532 ft 439 kts 337°
2026-05-04 22:26 49.39661 11.11845 27869 ft 442 kts 337°
2026-05-04 22:26 49.42517 11.10222 28194 ft 444 kts 336°
2026-05-04 22:26 49.45456 11.08543 28542 ft 446 kts 336°
2026-05-04 22:27 49.48335 11.06895 28872 ft 448 kts 336°
2026-05-04 22:27 49.51225 11.05232 29207 ft 450 kts 334°
2026-05-04 22:27 49.54033 11.03129 29520 ft 448 kts 326°
2026-05-04 22:27 49.56693 11.00623 29829 ft 449 kts 324°
2026-05-04 22:28 49.59395 10.98067 30114 ft 452 kts 325°
2026-05-04 22:28 49.62050 10.95561 30380 ft 453 kts 325°
2026-05-04 22:28 49.64747 10.93023 30640 ft 455 kts 325°
2026-05-04 22:28 49.67454 10.90478 30901 ft 457 kts 325°
2026-05-04 22:29 49.70173 10.87918 31177 ft 458 kts 325°
2026-05-04 22:29 49.72885 10.85358 31533 ft 457 kts 324°
2026-05-04 22:29 49.75597 10.82793 31864 ft 456 kts 324°
2026-05-04 22:30 49.80941 10.77729 31969 ft 439 kts 324°
2026-05-04 22:30 49.86093 10.72833 31961 ft 432 kts 324°
2026-05-04 22:31 49.91204 10.67944 31961 ft 431 kts 324°
2026-05-04 22:31 49.96303 10.63048 31961 ft 430 kts 324°
2026-05-04 22:32 50.01393 10.58168 31964 ft 430 kts 324°
2026-05-04 22:32 50.06486 10.53278 31968 ft 430 kts 323°
2026-05-04 22:33 50.11570 10.48364 31950 ft 431 kts 323°
2026-05-04 22:33 50.16665 10.43424 31951 ft 432 kts 323°
2026-05-04 22:34 50.21311 10.37697 31954 ft 422 kts 307°
2026-05-04 22:34 50.24780 10.30432 31964 ft 417 kts 300°
2026-05-04 22:35 50.28093 10.23016 31960 ft 417 kts 300°
2026-05-04 22:35 50.31414 10.15576 31977 ft 417 kts 300°
2026-05-04 22:36 50.34741 10.08130 31970 ft 417 kts 300°
2026-05-04 22:36 50.38050 10.00676 31967 ft 417 kts 300°
2026-05-04 22:37 50.41331 9.93245 31970 ft 417 kts 300°
2026-05-04 22:37 50.44634 9.85754 31969 ft 417 kts 299°
2026-05-04 22:38 50.47930 9.78255 31983 ft 417 kts 299°
2026-05-04 22:38 50.51223 9.70754 32002 ft 417 kts 299°
2026-05-04 22:39 50.54503 9.63253 32000 ft 417 kts 299°
2026-05-04 22:39 50.57766 9.55757 31990 ft 416 kts 299°
2026-05-04 22:40 50.61033 9.48244 31987 ft 416 kts 299°
2026-05-04 22:40 50.64301 9.40728 31982 ft 416 kts 299°
2026-05-04 22:41 50.67559 9.33196 31999 ft 416 kts 299°
2026-05-04 22:41 50.70812 9.25646 31994 ft 416 kts 299°
2026-05-04 22:42 50.73500 9.19398 31994 ft 416 kts 298°
2026-05-04 22:42 50.77292 9.10551 31988 ft 416 kts 298°
2026-05-04 22:43 50.80508 9.03019 31669 ft 407 kts 298°
2026-05-04 22:43 50.81549 9.00583 31508 ft 402 kts 298°
2026-05-04 22:43 50.83641 8.95717 31176 ft 399 kts 300°
2026-05-04 22:43 50.85288 8.92189 30918 ft 399 kts 302°
2026-05-04 22:44 50.87009 8.88739 30667 ft 399 kts 303°
2026-05-04 22:44 50.88761 8.85338 30425 ft 398 kts 304°
2026-05-04 22:44 50.89926 8.83095 30261 ft 397 kts 304°
2026-05-04 22:44 50.92257 8.78574 29912 ft 395 kts 303°
2026-05-04 22:45 50.93397 8.76334 29727 ft 394 kts 303°
2026-05-04 22:45 50.97356 8.68425 29056 ft 390 kts 303°
2026-05-04 22:45 50.99028 8.65044 28789 ft 388 kts 303°
2026-05-04 22:46 51.00717 8.61711 28523 ft 388 kts 307°
2026-05-04 22:46 51.02683 8.58744 28247 ft 392 kts 317°
2026-05-04 22:46 51.04893 8.56293 27978 ft 393 kts 322°
2026-05-04 22:46 51.07209 8.53905 27734 ft 392 kts 322°
2026-05-04 22:47 51.08720 8.52343 27551 ft 391 kts 322°
2026-05-04 22:47 51.11731 8.49222 27206 ft 389 kts 322°
2026-05-04 22:47 51.14024 8.46836 26939 ft 387 kts 322°
2026-05-04 22:47 51.15512 8.45286 26777 ft 386 kts 322°
2026-05-04 22:48 51.17000 8.43734 26599 ft 385 kts 322°
2026-05-04 22:48 51.19984 8.40619 26260 ft 383 kts 322°
2026-05-04 22:48 51.22208 8.38297 26009 ft 381 kts 322°
2026-05-04 22:48 51.24405 8.36000 25758 ft 379 kts 322°
2026-05-04 22:49 51.27319 8.32943 25435 ft 377 kts 322°
2026-05-04 22:49 51.29506 8.30645 25194 ft 376 kts 323°
2026-05-04 22:49 51.30977 8.29100 25034 ft 375 kts 323°
2026-05-04 22:49 51.33791 8.25952 24710 ft 370 kts 315°
2026-05-04 22:50 51.35040 8.24042 24546 ft 365 kts 308°
2026-05-04 22:50 51.36984 8.19735 24234 ft 358 kts 296°
2026-05-04 22:50 51.37821 8.17420 24075 ft 355 kts 296°
2026-05-04 22:50 51.39059 8.14010 23776 ft 353 kts 296°
2026-05-04 22:51 51.40290 8.10629 23296 ft 355 kts 296°
2026-05-04 22:51 51.41545 8.07195 22740 ft 355 kts 296°
2026-05-04 22:51 51.42776 8.03834 22219 ft 355 kts 296°
2026-05-04 22:51 51.44031 8.00418 21689 ft 355 kts 296°
2026-05-04 22:52 51.45270 7.97046 21174 ft 355 kts 296°
2026-05-04 22:52 51.46537 7.93647 20676 ft 356 kts 300°
2026-05-04 22:52 51.48176 7.90575 20162 ft 361 kts 315°
2026-05-04 22:52 51.50208 7.88278 19683 ft 366 kts 329°
2026-05-04 22:53 51.52589 7.86791 19196 ft 370 kts 341°
2026-05-04 22:53 51.55065 7.85627 18713 ft 370 kts 341°
2026-05-04 22:53 51.57537 7.84450 18215 ft 370 kts 341°
2026-05-04 22:53 51.60010 7.83263 17657 ft 371 kts 341°
2026-05-04 22:54 51.62477 7.82073 17098 ft 371 kts 341°
2026-05-04 22:54 51.64953 7.80876 16553 ft 371 kts 341°
2026-05-04 22:54 51.67426 7.79677 16004 ft 372 kts 341°
2026-05-04 22:54 51.69904 7.78477 15487 ft 372 kts 341°
2026-05-04 22:55 51.72367 7.77286 14966 ft 372 kts 341°
2026-05-04 22:55 51.74855 7.76082 14463 ft 371 kts 341°
2026-05-04 22:55 51.77331 7.74886 13957 ft 371 kts 341°
2026-05-04 22:55 51.79796 7.73694 13427 ft 370 kts 342°
2026-05-04 22:56 51.82237 7.72447 12862 ft 367 kts 336°
2026-05-04 22:56 51.84414 7.70353 12321 ft 362 kts 318°
2026-05-04 22:56 51.86044 7.67351 11780 ft 357 kts 300°
2026-05-04 22:56 51.87041 7.63727 11263 ft 351 kts 285°
2026-05-04 22:57 51.87738 7.60000 10737 ft 349 kts 285°
2026-05-04 22:57 51.88442 7.56250 10234 ft 346 kts 285°
2026-05-04 22:57 51.89138 7.52550 9714 ft 344 kts 285°
2026-05-04 22:57 51.89600 7.50106 9343 ft 342 kts 285°
2026-05-04 22:58 51.90517 7.45244 8612 ft 338 kts 285°
2026-05-04 22:58 51.91207 7.41567 8075 ft 336 kts 285°
2026-05-04 22:58 51.91880 7.37970 7537 ft 327 kts 285°
2026-05-04 22:58 51.92521 7.34535 7018 ft 312 kts 285°
2026-05-04 22:59 51.93136 7.31234 6511 ft 300 kts 286°
2026-05-04 22:59 51.93723 7.28057 5980 ft 290 kts 285°
2026-05-04 22:59 51.94289 7.24981 5439 ft 280 kts 286°
2026-05-04 22:59 51.94864 7.21973 4908 ft 272 kts 291°
2026-05-04 23:00 51.95846 7.19469 4369 ft 265 kts 315°
2026-05-04 23:00 51.97340 7.17819 3842 ft 259 kts 338°
2026-05-04 23:00 51.99073 7.17213 3307 ft 254 kts
2026-05-04 23:00 52.00759 7.17695 3018 ft 238 kts 22°
2026-05-04 23:01 52.02111 7.18983 2996 ft 215 kts 41°
2026-05-04 23:01 52.03076 7.20717 2995 ft 200 kts 58°
2026-05-04 23:01 52.03671 7.22701 2994 ft 193 kts 73°
2026-05-04 23:01 52.04111 7.24750 2994 ft 191 kts 72°
2026-05-04 23:02 52.04553 7.26786 2995 ft 191 kts 72°
2026-05-04 23:02 52.04995 7.28831 2995 ft 191 kts 72°
2026-05-04 23:02 52.05434 7.30871 2996 ft 191 kts 72°
2026-05-04 23:02 52.05874 7.32910 2991 ft 191 kts 72°
2026-05-04 23:03 52.06310 7.34939 2994 ft 191 kts 72°
2026-05-04 23:03 52.06746 7.36966 2995 ft 191 kts 72°
2026-05-04 23:03 52.07189 7.39029 2995 ft 193 kts 72°
2026-05-04 23:03 52.07630 7.41084 3023 ft 193 kts 72°
2026-05-04 23:04 52.08069 7.43132 3003 ft 193 kts 72°
2026-05-04 23:04 52.08505 7.45168 2891 ft 185 kts 72°
2026-05-04 23:04 52.08928 7.47146 2688 ft 181 kts 72°
2026-05-04 23:04 52.09332 7.49037 2464 ft 179 kts 72°
2026-05-04 23:05 52.09742 7.50959 2234 ft 177 kts 72°
2026-05-04 23:05 52.10139 7.52819 2011 ft 175 kts 72°
2026-05-04 23:05 52.10530 7.54655 1782 ft 170 kts 72°
2026-05-04 23:05 52.10913 7.56454 1563 ft 163 kts 72°
2026-05-04 23:06 52.11282 7.58188 1324 ft 153 kts 72°
2026-05-04 23:06 52.11620 7.59776 1118 ft 149 kts 72°
2026-05-04 23:06 52.11956 7.61359 918 ft 147 kts 71°
2026-05-04 23:06 52.12199 7.62529 759 ft 146 kts 72°
2026-05-04 23:07 52.12536 7.64086 591 ft 145 kts 71°
2026-05-04 23:07 52.12866 7.65640 365 ft 145 kts 70°
2026-05-04 23:07 52.13194 7.67181 204 ft 145 kts 72°
2026-05-04 23:07 52.13479 7.68564 167 ft 104 kts 70°
2026-05-04 23:08 52.13653 7.69345 169 ft 30 kts 71°
2026-05-04 23:08 52.13676 7.69483 169 ft 17 kts 75°